Location: Deneb Observatory
(47.2267°N, 100.4953°W)
Time: 23:25:22
(UTC-05:00)

Amateur Radio Satellites - All Passes

Search period start: 01 September 2014 22:55
Search period end: 02 September 2014 22:55
Location: Deneb Observatory, 47.2267°N, 100.4953°W

Satellite Date Start Highest point End Downlink Frequencies (MHz)
Time Altitude Azimuth
Sapphire 01 Sep 23:21:49 23:23:03 11° 16° (NNE) 23:24:18 437.095 MHz 1200 baud AX-25 AFSK
Saudisat 1A 01 Sep 23:22:30 23:26:52 65° 124° (SE) 23:31:15 436.775 MHz
FUNcube-1 01 Sep 23:23:21 23:27:32 69° 258° (WSW) 23:31:51 145.950 - 145.970 MHz USB
HO-68 01 Sep 23:28:38 23:33:44 21° 271° (W) 23:38:53 435.675 MHz FM
AO-40 01 Sep 23:37:35 04:00:08 30° 148° (SSE) 05:34:35 Beacon 2401.320
MaSat-1 01 Sep 23:42:15 23:46:28 37° 251° (WSW) 23:50:09 437.345 MHz
PCSat 01 Sep 23:50:22 23:53:07 14° 24° (NNE) 23:55:51 145.825 MHz
KITSAT 1 02 Sep 00:20:35 00:28:36 70° 119° (ESE) 00:36:38 435.175 FM
Saudisat 1A 02 Sep 01:03:15 01:06:50 24° 324° (NW) 01:10:27 436.775 MHz
Sapphire 02 Sep 01:03:45 01:08:25 28° 41° (NE) 01:13:04 437.095 MHz 1200 baud AX-25 AFSK
PCSat 02 Sep 01:32:49 01:38:00 43° 48° (NE) 01:43:10 145.825 MHz
Oscar 10/S400 02 Sep 02:08:49 03:02:08 45° 209° (SSW) 09:12:44 145.825 - 145.975 CW/USB, Beacon 145.810 USB
Oscar 16 02 Sep 02:14:40 02:18:24 20° 91° (E) 02:22:07 437.025 USB, Beacon 2401.1428
KITSAT 1 02 Sep 02:17:06 02:24:35 39° 323° (NW) 02:32:06 435.175 FM
Uribyol 2 02 Sep 02:28:08 02:29:47 11° 86° (E) 02:31:26 436.500 FM
JAS-1B 02 Sep 02:33:22 02:36:35 14° 81° (E) 02:39:36 435.800 - 435.900 CW/SSB
Sapphire 02 Sep 02:46:53 02:52:16 64° 242° (WSW) 02:57:37 437.095 MHz 1200 baud AX-25 AFSK
AO-27 02 Sep 02:47:08 02:50:26 17° 89° (E) 02:53:43 436.795 MHz FM
PCSat 02 Sep 03:16:26 03:21:21 36° 248° (WSW) 03:26:14 145.825 MHz
Oscar 19 02 Sep 03:17:38 03:22:50 66° 102° (ESE) 03:27:58 437.125 CW, 437.150 USB
OPAL 02 Sep 03:22:20 03:24:42 13° 51° (NE) 03:27:04 ?
AO-Echo 02 Sep 03:26:03 03:30:26 38° 97° (E) 03:34:50 ?
Gurwin Techsat 1B 02 Sep 03:28:34 03:32:19 19° 90° (E) 03:36:02 435.225 FM
Oscar 16 02 Sep 03:53:02 03:58:12 62° 289° (WNW) 04:03:18 437.025 USB, Beacon 2401.1428
ITAMSAT 1 02 Sep 03:55:33 04:00:43 64° 102° (ESE) 04:05:52 435.822 SSB
SO-50 02 Sep 04:02:46 04:06:59 41° 119° (ESE) 04:11:18 436.795 FM
Uribyol 2 02 Sep 04:04:51 04:10:05 81° 104° (ESE) 04:15:18 436.500 FM
KITSAT 1 02 Sep 04:16:46 04:22:35 21° 351° (N) 04:28:24 435.175 FM
TMSAT-1 02 Sep 04:17:43 04:22:38 37° 97° (E) 04:27:30 436.925 FM
JAS-1B 02 Sep 04:21:46 04:28:40 86° 105° (ESE) 04:34:35 435.800 - 435.900 CW/SSB
AO-27 02 Sep 04:25:19 04:30:30 72° 288° (WNW) 04:35:40 436.795 MHz FM
AO-7 02 Sep 04:34:09 04:39:25 18° 87° (E) 04:44:39 29.400 - 29.500 MHz
OPAL 02 Sep 04:57:38 05:02:42 73° 70° (ENE) 05:07:52 ?
Oscar 19 02 Sep 04:57:55 05:01:42 21° 301° (WNW) 05:05:28 437.125 CW, 437.150 USB
AO-Echo 02 Sep 05:05:09 05:09:06 28° 296° (WNW) 05:13:04 ?
Gurwin Techsat 1B 02 Sep 05:07:29 05:12:46 66° 288° (WNW) 05:18:01 435.225 FM
Oscar 16 02 Sep 05:35:11 05:36:32 11° 308° (NW) 05:37:54 437.025 USB, Beacon 2401.1428
ITAMSAT 1 02 Sep 05:35:57 05:39:46 21° 301° (WNW) 05:43:34 435.822 SSB
SO-50 02 Sep 05:43:32 05:47:38 33° 320° (NW) 05:51:51 436.795 FM
Uribyol 2 02 Sep 05:45:38 05:48:56 17° 303° (WNW) 05:52:14 436.500 FM
UOSAT-12 02 Sep 05:48:16 05:52:34 40° 119° (ESE) 05:56:57 437.025 FM, 437.400 FM
Uosat F 02 Sep 05:57:03 06:02:00 56° 101° (E) 06:06:55 435.120 FM
TMSAT-1 02 Sep 05:57:45 06:02:30 34° 295° (WNW) 06:07:14 436.925 FM
AO-27 02 Sep 06:06:59 06:09:07 13° 307° (NW) 06:11:15 436.795 MHz FM
Saudisat 1A 02 Sep 06:07:19 06:10:57 24° 36° (NE) 06:14:34 436.775 MHz
JAS-1B 02 Sep 06:13:33 06:18:16 20° 310° (NW) 06:22:33 435.800 - 435.900 CW/SSB
KITSAT 1 02 Sep 06:14:49 06:21:14 25° 21° (NNE) 06:27:37 435.175 FM
AO-7 02 Sep 06:25:10 06:33:31 80° 108° (ESE) 06:41:49 29.400 - 29.500 MHz
RS-15 02 Sep 06:29:37 06:35:37 17° 96° (E) 06:41:33 29.354 - 29.394 USB, Beacon 29.352 USB
OPAL 02 Sep 06:38:57 06:42:08 17° 269° (W) 06:45:23 ?
STRAND 1 02 Sep 06:46:13 06:50:50 36° 66° (ENE) 06:55:28 ?
Gurwin Techsat 1B 02 Sep 06:49:55 06:51:45 12° 308° (NW) 06:53:35 435.225 FM
Hamsat 02 Sep 06:58:27 07:02:09 27° 94° (E) 07:05:49 145.90 MHz
JAS-2 02 Sep 07:13:02 07:17:54 36° 97° (E) 07:23:05 435.800 - 435.900 CW/SSB, 435.910 FM
SO-50 02 Sep 07:27:57 07:29:39 12° 343° (NNW) 07:31:21 436.795 FM
UOSAT-12 02 Sep 07:28:28 07:32:46 36° 319° (NW) 07:37:09 437.025 FM, 437.400 FM
Uosat F 02 Sep 07:36:37 07:40:25 22° 300° (WNW) 07:44:13 435.120 FM
Saudisat 1A 02 Sep 07:46:32 07:50:55 63° 236° (WSW) 07:55:16 436.775 MHz
KITSAT 1 02 Sep 08:10:29 08:18:29 59° 47° (NE) 08:26:25 435.175 FM
AO-7 02 Sep 08:18:45 08:25:34 30° 309° (NW) 08:32:23 29.400 - 29.500 MHz
STRAND 1 02 Sep 08:25:29 08:30:03 33° 264° (W) 08:34:39 ?
Hamsat 02 Sep 08:34:14 08:38:10 34° 292° (WNW) 08:42:03 145.90 MHz
RS-15 02 Sep 08:34:49 08:45:42 68° 119° (ESE) 08:56:29 29.354 - 29.394 USB, Beacon 29.352 USB
JAS-2 02 Sep 08:58:21 09:03:02 34° 294° (WNW) 09:07:58 435.800 - 435.900 CW/SSB, 435.910 FM
HO-68 02 Sep 09:05:10 09:07:55 12° 84° (E) 09:10:40 435.675 MHz FM
SO-67 02 Sep 09:10:07 09:13:35 68° 285° (WNW) 09:17:01 435.3500 MHz FM
UOSAT-12 02 Sep 09:12:16 09:14:18 13° 341° (NNW) 09:16:21 437.025 FM, 437.400 FM
KITSAT 1 02 Sep 10:06:17 10:13:37 40° 249° (WSW) 10:20:56 435.175 FM
ISS 02 Sep 10:22:19 10:24:55 21° 139° (SE) 10:27:31 145.800 FM
UKube-1 02 Sep 10:33:10 10:36:49 26° 95° (E) 10:40:28 145.840 MHz, 145.915 MHz
Oscar 11 02 Sep 10:36:36 10:39:51 20° 92° (E) 10:43:06 145.825 FM, Beacon 2401.500 USB
RS-15 02 Sep 10:48:10 10:58:41 48° 326° (NW) 11:09:14 29.354 - 29.394 USB, Beacon 29.352 USB
HO-68 02 Sep 10:49:51 10:56:59 66° 104° (ESE) 11:04:06 435.675 MHz FM
SO-50 02 Sep 10:51:08 10:54:47 21° 33° (NNE) 10:58:28 436.795 FM
FUNcube-1 02 Sep 11:09:52 11:13:12 20° 92° (E) 11:16:33 145.950 - 145.970 MHz USB
ISS 02 Sep 11:58:02 12:01:21 77° 336° (NNW) 12:04:42 145.800 FM
UKube-1 02 Sep 12:09:08 12:13:06 35° 293° (WNW) 12:17:02 145.840 MHz, 145.915 MHz
Oscar 11 02 Sep 12:12:05 12:16:16 45° 290° (WNW) 12:20:26 145.825 FM, Beacon 2401.500 USB
SO-50 02 Sep 12:31:11 12:35:59 89° 233° (SW) 12:40:50 436.795 FM
UOSAT-12 02 Sep 12:35:09 12:38:40 20° 31° (NNE) 12:42:08 437.025 FM, 437.400 FM
HO-68 02 Sep 12:38:13 12:44:14 30° 304° (NW) 12:50:14 435.675 MHz FM
FUNcube-1 02 Sep 12:45:27 12:49:51 51° 289° (WNW) 12:54:18 145.950 - 145.970 MHz USB
Oscar 19 02 Sep 13:00:15 13:04:00 21° 59° (ENE) 13:07:46 437.125 CW, 437.150 USB
RS-15 02 Sep 13:04:59 13:14:23 31° 359° (N) 13:23:56 29.354 - 29.394 USB, Beacon 29.352 USB
AO-Echo 02 Sep 13:07:27 13:08:51 11° 55° (NE) 13:10:15 ?
JAS-1B 02 Sep 13:18:47 13:26:14 28° 56° (NE) 13:32:55 435.800 - 435.900 CW/SSB
MaSat-1 02 Sep 13:31:45 13:36:34 51° 112° (ESE) 13:41:34 437.345 MHz
Oscar 16 02 Sep 13:34:21 13:39:07 39° 66° (ENE) 13:43:55 437.025 USB, Beacon 2401.1428
ISS 02 Sep 13:35:16 13:38:24 37° 357° (N) 13:41:32 145.800 FM
ITAMSAT 1 02 Sep 13:39:11 13:42:58 21° 59° (ENE) 13:46:46 435.822 SSB
Uribyol 2 02 Sep 13:47:53 13:52:04 26° 62° (ENE) 13:56:15 436.500 FM
AO-7 02 Sep 13:50:49 13:53:01 11° 31° (NNE) 13:55:13 29.400 - 29.500 MHz
TMSAT-1 02 Sep 14:05:14 14:07:44 14° 54° (NE) 14:10:15 436.925 FM
AO-27 02 Sep 14:07:54 14:12:34 35° 65° (ENE) 14:17:15 436.795 MHz FM
SO-50 02 Sep 14:13:28 14:15:54 14° 251° (WSW) 14:18:20 436.795 FM
UOSAT-12 02 Sep 14:14:46 14:19:32 83° 52° (NE) 14:24:14 437.025 FM, 437.400 FM
Oscar 19 02 Sep 14:37:44 14:42:52 66° 258° (WSW) 14:48:04 437.125 CW, 437.150 USB
AO-Echo 02 Sep 14:41:52 14:46:49 71° 73° (ENE) 14:51:38 ?
Gurwin Techsat 1B 02 Sep 14:52:23 14:57:19 40° 67° (ENE) 15:02:15 435.225 FM
JAS-1B 02 Sep 15:06:19 15:16:01 87° 254° (WSW) 15:24:30 435.800 - 435.900 CW/SSB
MaSat-1 02 Sep 15:09:22 15:13:50 30° 312° (NW) 15:18:22 437.345 MHz
ISS 02 Sep 15:12:15 15:15:32 53° 17° (NNE) 15:18:48 145.800 FM
Oscar 16 02 Sep 15:13:57 15:18:32 32° 265° (W) 15:23:10 437.025 USB, Beacon 2401.1428
ITAMSAT 1 02 Sep 15:16:54 15:22:01 64° 258° (WSW) 15:27:11 435.822 SSB
RS-15 02 Sep 15:19:46 15:30:14 46° 32° (NNE) 15:40:59 29.354 - 29.394 USB, Beacon 29.352 USB
Uribyol 2 02 Sep 15:26:16 15:31:16 50° 260° (W) 15:36:18 436.500 FM
AO-7 02 Sep 15:36:03 15:43:25 37° 55° (NE) 15:50:46 29.400 - 29.500 MHz
Uosat F 02 Sep 15:37:03 15:40:15 17° 57° (ENE) 15:43:26 435.120 FM
TMSAT-1 02 Sep 15:41:32 15:46:48 77° 73° (ENE) 15:52:07 436.925 FM
AO-27 02 Sep 15:47:23 15:52:05 35° 264° (W) 15:56:49 436.795 MHz FM
UOSAT-12 02 Sep 15:56:24 15:59:03 15° 251° (WSW) 16:01:41 437.025 FM, 437.400 FM
PCSat 02 Sep 16:19:26 16:23:06 19° 106° (ESE) 16:26:48 145.825 MHz
AO-Echo 02 Sep 16:23:09 16:26:05 16° 270° (W) 16:28:59 ?
Gurwin Techsat 1B 02 Sep 16:32:41 16:37:22 31° 265° (W) 16:42:05 435.225 FM
ISS 02 Sep 16:49:06 16:52:12 37° 215° (SW) 16:55:18 145.800 FM
JAS-1B 02 Sep 17:00:14 17:07:21 23° 272° (W) 17:13:56 435.800 - 435.900 CW/SSB
OPAL 02 Sep 17:05:57 17:08:50 15° 90° (E) 17:11:41 ?
Uosat F 02 Sep 17:13:27 17:18:27 77° 256° (WSW) 17:23:29 435.120 FM
TMSAT-1 02 Sep 17:24:07 17:27:20 16° 272° (W) 17:30:34 436.925 FM
AO-7 02 Sep 17:27:33 17:35:48 64° 256° (WSW) 17:44:05 29.400 - 29.500 MHz
JAS-2 02 Sep 17:29:48 17:34:15 24° 62° (ENE) 17:38:27 435.800 - 435.900 CW/SSB, 435.910 FM
Sapphire 02 Sep 17:31:26 17:36:46 64° 119° (ESE) 17:42:08 437.095 MHz 1200 baud AX-25 AFSK
RS-15 02 Sep 17:32:29 17:43:29 74° 239° (WSW) 17:54:55 29.354 - 29.394 USB, Beacon 29.352 USB
Hamsat 02 Sep 17:54:47 17:58:31 29° 67° (ENE) 18:02:17 145.90 MHz
PCSat 02 Sep 18:00:30 18:05:55 75° 305° (NW) 18:11:23 145.825 MHz
OPAL 02 Sep 18:43:06 18:48:22 84° 289° (WNW) 18:53:34 ?
Uosat F 02 Sep 18:57:45 18:58:05 10° 274° (W) 18:58:26 435.120 FM
JAS-2 02 Sep 19:13:16 19:19:06 58° 259° (WSW) 19:24:25 435.800 - 435.900 CW/SSB, 435.910 FM
Sapphire 02 Sep 19:15:59 19:20:37 28° 319° (NW) 19:25:17 437.095 MHz 1200 baud AX-25 AFSK
AO-7 02 Sep 19:26:50 19:30:17 13° 276° (W) 19:33:46 29.400 - 29.500 MHz
Hamsat 02 Sep 19:30:32 19:34:25 32° 265° (W) 19:38:21 145.90 MHz
HO-68 02 Sep 19:37:35 19:41:51 17° 47° (NE) 19:46:08 435.675 MHz FM
SO-67 02 Sep 19:45:49 19:49:15 61° 75° (ENE) 19:52:41 435.3500 MHz FM
PCSat 02 Sep 19:46:24 19:50:16 19° 327° (NNW) 19:54:09 145.825 MHz
RS-15 02 Sep 19:46:46 19:53:54 20° 261° (W) 20:01:14 29.354 - 29.394 USB, Beacon 29.352 USB
OPAL 02 Sep 20:23:32 20:26:29 15° 307° (NW) 20:29:25 ?
STRAND 1 02 Sep 20:32:07 20:37:13 66° 102° (ESE) 20:42:17 ?
Sapphire 02 Sep 21:04:48 21:06:00 11° 344° (NNW) 21:07:12 437.095 MHz 1200 baud AX-25 AFSK
HO-68 02 Sep 21:21:16 21:28:20 68° 68° (ENE) 21:35:25 435.675 MHz FM
UKube-1 02 Sep 21:31:35 21:35:30 34° 67° (ENE) 21:39:27 145.840 MHz, 145.915 MHz
Oscar 11 02 Sep 21:34:42 21:38:12 24° 65° (ENE) 21:41:44 145.825 FM, Beacon 2401.500 USB
MaSat-1 02 Sep 21:46:34 21:50:38 28° 47° (NE) 21:54:17 437.345 MHz
Saudisat 1A 02 Sep 21:57:32 22:00:09 16° 111° (ESE) 22:02:47 436.775 MHz
FUNcube-1 02 Sep 22:09:42 22:12:59 22° 64° (ENE) 22:16:20 145.950 - 145.970 MHz USB
STRAND 1 02 Sep 22:12:17 22:15:56 20° 301° (WNW) 22:19:35 ?
